Wind_Speed
109 114 113 98 99 95 94 91 90 88 90 94 98 99 90 92 90 83 79 83 81 81 80 75 78 73 71 74 72 73 74 74 71 70 67 66 63 64 66 66 66 64 58 52
112 106 90 94 96 98 102 96 90 91 88 90 99 97 90 82 79 79 78 78 81 77 74 73 72 69 69 71 72 71 72 71 70 64 61 61 59 62 64 65 61 59 53 47
109 89 91 95 95 99 91 88 88 88 86 88 92 85 78 77 74 73 74 75 75 73 70 68 65 60 68 65 66 67 68 65 61 58 56 54 57 59 62 60 55 51 48 43
100 88 89 93 95 95 90 83 86 86 85 82 86 69 69 71 68 69 67 67 65 66 63 61 60 58 59 60 61 62 59 55 51 50 50 51 55 57 56 54 49 43 44 40
92 92 95 92 79 87 77 79 82 82 84 81 74 72 54 60 59 54 53 49 52 54 53 53 52 60 54 57 56 53 50 46 44 43 46 51 53 54 50 44 44 39 35 37
101 102 101 89 86 89 79 77 81 79 79 70 57 64 43 48 44 41 38 38 45 48 51 48 51 49 50 50 48 46 43 38 37 41 46 49 49 45 42 39 37 37 36 32
108 113 104 99 92 85 83 80 78 76 66 48 50 44 35 38 29 29 33 37 40 45 43 46 47 46 45 44 40 38 32 31 35 42 44 44 44 39 35 31 32 32 31 26
115 116 109 99 92 88 86 82 77 69 60 49 47 37 37 36 35 32 35 36 41 43 42 42 41 39 37 31 28 24 25 30 38 38 39 40 38 35 27 26 33 25 28 21
114 113 110 110 103 101 90 94 71 74 68 63 52 47 41 39 38 32 33 34 37 35 37 31 26 24 21 18 20 18 24 33 32 36 37 36 33 27 19 24 28 23 24 17
99 100 107 105 108 104 102 86 82 75 72 62 53 49 47 39 37 32 31 36 32 27 16 16 13 11 14 19 17 21 28 27 32 34 34 30 25 14 16 22 28 23 20 12
96 88 97 106 105 102 103 94 86 78 70 62 56 52 52 42 34 36 29 32 22 14 13 11 11 15 18 12 19 24 24 28 30 33 29 25 14 8 13 23 26 22 21 13
93 91 93 90 99 101 100 94 85 80 68 65 61 54 50 43 37 33 26 23 20 18 17 17 16 16 16 15 21 23 22 28 30 27 23 21 6 4 12 20 24 20 21 13
74 79 90 87 89 89 94 93 91 84 77 66 62 56 55 48 41 39 24 27 24 19 16 17 16 18 15 17 21 16 23 27 26 22 18 14 4 2 8 18 26 19 18 12
57 65 78 87 89 91 93 92 89 83 76 65 61 63 61 53 44 44 30 23 26 17 16 20 15 14 15 20 13 17 23 26 23 16 17 8 8 4 6 15 21 19 15 11
51 57 66 82 93 88 83 87 88 77 73 68 63 64 68 53 47 38 35 24 19 21 16 19 16 15 17 12 12 17 22 23 20 16 14 7 11 5 5 12 18 20 14 10
43 48 59 68 77 78 79 78 80 76 72 70 66 66 68 52 47 41 33 30 20 16 15 18 17 15 12 8 12 16 21 21 15 15 12 6 13 8 4 10 15 19 9 6
38 45 53 62 71 74 66 65 67 68 71 69 64 68 68 56 49 40 32 29 23 19 21 20 15 16 8 7 12 17 19 19 14 14 11 6 9 8 4 6 12 15 9 4
38 46 55 61 69 63 61 63 62 64 68 69 70 70 72 60 46 35 31 29 25 21 24 23 16 14 7 6 11 14 17 18 13 12 8 4 9 8 3 4 10 8 10 9
40 47 54 57 65 68 73 77 78 70 77 83 82 81 45 44 39 42 35 31 27 22 24 23 16 14 6 7 9 13 15 15 12 9 4 2 7 8 4 4 6 6 4 3
46 52 54 58 66 70 74 75 81 85 80 79 67 48 37 44 40 40 39 32 25 23 23 18 15 15 6 7 7 11 12 12 11 7 3 4 5 8 5 8 6 6 3 3
52 56 59 60 69 73 76 80 77 71 67 66 55 50 51 41 42 45 37 32 28 25 26 19 16 16 8 6 5 8 10 10 8 5 2 7 4 8 8 8 5 2 3 4
56 61 64 69 72 76 79 77 75 70 70 63 58 58 51 52 47 44 40 36 32 31 28 21 19 18 10 6 3 6 7 10 6 5 1 6 8 6 8 10 7 4 2 7
60 61 62 70 77 76 82 80 75 73 63 61 65 59 59 55 49 45 43 40 36 34 25 21 21 20 12 8 3 3 5 7 8 3 2 6 8 8 7 9 9 9 6 3
54 60 68 76 81 83 82 75 71 72 74 71 67 64 58 56 50 47 47 39 39 32 26 22 20 22 16 10 6 2 2 3 6 4 3 6 8 8 8 8 7 10 9 5
51 57 63 74 81 85 84 81 81 81 81 79 74 67 63 57 53 51 49 42 40 30 32 25 24 25 21 14 8 5 3 1 4 6 4 4 4 6 7 8 7 7 9 8
49 53 59 74 82 85 84 84 85 83 83 79 75 70 67 59 57 55 51 45 37 39 37 30 27 28 23 18 13 9 6 4 2 4 5 6 7 8 8 8 7 4 4 7
Wind_Direction
248 249 253 256 251 249 251 256 256 254 258 261 260 262 266 267 271 275 278 278 278 280 282 281 277 284 282 277 278 280 284 287 290 294 296 299 306 307 308 308 308 306 308 308
246 249 252 245 248 250 256 256 257 257 257 258 260 261 267 272 272 274 275 274 279 279 280 278 279 285 282 280 281 283 285 288 290 293 296 301 305 305 305 307 306 306 308 312
245 247 244 248 250 254 256 257 254 255 252 259 264 267 270 269 271 270 271 275 276 279 278 279 280 282 276 280 281 283 284 286 290 293 298 303 304 304 304 305 306 308 312 316
243 242 245 248 251 254 254 255 254 255 255 263 266 269 267 265 268 267 274 277 278 277 277 276 277 278 278 279 281 282 284 287 290 295 301 302 302 304 302 304 305 311 317 318
243 242 242 244 248 250 250 249 252 254 258 258 262 263 263 267 265 275 279 281 279 276 275 275 273 275 279 279 279 281 284 286 293 300 299 299 302 301 304 307 310 317 320 318
242 243 244 243 239 245 245 249 251 253 255 259 260 262 267 265 277 276 282 278 279 279 277 276 274 273 273 276 278 281 284 292 299 298 297 300 301 306 306 310 315 324 326 328
239 241 242 242 242 243 245 247 251 253 259 263 256 262 257 268 271 282 279 281 285 283 281 277 274 272 272 274 277 282 290 298 298 296 299 300 306 306 308 316 326 331 329 329
239 239 241 242 243 242 240 243 247 253 257 254 254 260 254 267 277 279 282 287 283 284 281 274 273 273 272 274 279 289 295 297 297 296 300 305 306 302 312 323 333 340 337 343
237 239 238 238 238 239 240 239 243 245 250 253 256 260 261 265 273 282 286 290 285 283 274 276 277 268 267 271 285 289 297 297 296 300 308 307 300 305 320 330 343 337 339 340
236 233 236 237 239 237 240 240 237 244 247 252 251 256 259 263 271 277 280 289 283 269 271 259 247 256 267 277 281 287 297 297 300 310 309 305 302 314 327 342 341 342 345 341
233 229 230 233 237 236 237 238 240 240 239 244 245 252 257 258 261 276 286 285 263 233 244 246 251 270 277 286 283 288 298 302 307 314 307 304 309 328 351 344 341 342 346 337
232 228 227 227 230 230 232 232 233 238 241 243 243 245 257 259 262 269 277 273 237 213 235 249 255 274 287 281 285 293 308 308 316 309 307 301 299 351 353 342 349 344 347 344
230 227 223 222 225 228 231 230 232 232 230 232 237 243 249 251 255 262 273 266 221 217 240 235 260 276 276 287 296 309 311 318 315 308 300 299 193 14 332 345 354 350 346 344
225 222 219 218 219 220 220 223 227 228 229 229 234 238 244 244 248 257 271 235 215 219 225 237 265 270 288 300 299 319 318 322 316 307 302 284 195 212 325 349 353 355 350 352
216 216 213 214 214 215 217 219 219 222 222 224 227 237 241 240 244 252 260 207 213 216 237 252 260 286 283 287 319 315 322 324 313 307 304 266 207 220 324 344 355 358 346 350
207 208 209 211 212 212 211 213 216 212 214 217 220 229 238 237 238 243 255 209 209 220 243 244 277 277 274 302 316 318 326 330 317 308 304 262 220 242 320 343 358 352 338 335
196 198 200 206 203 206 204 206 209 213 214 216 217 225 234 232 230 241 249 207 211 225 231 250 266 271 235 294 311 318 329 331 320 306 303 262 212 227 284 338 4 15 31 22
183 189 194 197 196 194 188 197 200 204 206 209 213 220 229 227 225 233 223 213 213 216 232 245 254 246 227 294 313 323 331 331 321 307 309 232 197 214 242 24 30 34 44 42
178 185 191 189 186 187 188 191 193 199 203 202 207 213 197 212 214 218 214 206 208 214 226 243 248 224 227 283 317 328 335 330 319 306 340 181 184 198 169 117 62 39 18 346
178 182 189 183 180 184 191 186 195 194 199 203 200 170 180 213 213 210 209 200 207 213 218 245 254 215 223 270 311 334 339 331 312 303 21 55 192 178 171 149 112 86 87 304
177 180 185 178 180 182 188 193 196 194 195 195 176 187 209 206 205 210 202 208 210 215 238 239 241 213 224 253 310 341 342 337 306 291 54 63 71 192 185 163 156 132 70 347
178 183 183 177 182 183 186 191 188 191 195 192 193 201 200 207 206 205 203 202 206 214 228 231 230 208 219 231 283 344 343 347 309 280 75 84 78 123 173 175 165 166 45 26
184 187 184 181 185 183 185 185 185 186 188 192 195 193 200 206 200 202 201 201 207 209 230 227 221 205 210 215 219 338 350 339 351 270 118 104 100 107 134 157 176 165 158 60
186 187 185 186 184 183 184 180 180 184 191 192 196 197 202 204 197 199 199 201 204 206 225 225 231 204 207 203 201 205 5 353 2 21 131 119 109 106 111 133 160 179 164 136
188 189 188 187 188 185 179 177 181 185 188 190 194 197 198 201 197 197 198 199 203 222 226 223 223 204 208 198 201 203 160 51 35 30 73 107 117 108 105 112 125 158 179 162
190 189 187 188 190 187 180 177 181 184 189 192 195 194 196 195 198 198 200 201 212 227 217 226 224 207 210 202 206 215 184 169 91 30 48 73 88 124 114 110 111 122 149 182
Height
10632 10627 10658 10694 10681 10690 10688 10707 10724 10733 10729 10722 10724 10729 10752 10752 10756 10755 10760 10753 10754 10756 10758 10761 10751 10753 10754 10745 10744 10739 10734 10731 10731 10726 10719 10714 10706 10698 10690 10681 10673 10662 10657 10650
10603 10630 10664 10640 10654 10666 10682 10693 10707 10710 10706 10702 10709 10720 10737 10740 10741 10740 10741 10738 10740 10743 10742 10741 10739 10740 10740 10734 10731 10729 10725 10721 10719 10716 10710 10704 10697 10689 10679 10672 10665 10653 10647 10641
10583 10637 10607 10628 10641 10646 10669 10681 10684 10691 10683 10692 10695 10714 10730 10722 10726 10724 10723 10729 10727 10727 10727 10727 10727 10728 10721 10722 10720 10717 10714 10710 10709 10704 10700 10695 10687 10681 10668 10662 10656 10645 10637 10632
10573 10599 10607 10609 10626 10634 10649 10655 10658 10670 10672 10690 10683 10712 10712 10704 10711 10709 10719 10715 10715 10711 10713 10712 10711 10714 10711 10710 10709 10706 10703 10701 10698 10695 10691 10685 10678 10670 10662 10653 10647 10640 10629 10624
10577 10578 10581 10592 10623 10608 10640 10622 10644 10652 10664 10673 10686 10689 10705 10697 10691 10706 10705 10703 10699 10697 10698 10699 10699 10697 10701 10699 10698 10696 10695 10692 10690 10687 10682 10676 10669 10661 10653 10646 10637 10633 10627 10619
10552 10550 10554 10586 10589 10595 10608 10619 10626 10636 10649 10663 10675 10675 10696 10677 10694 10694 10692 10690 10688 10687 10687 10689 10688 10689 10688 10689 10688 10687 10687 10685 10682 10678 10673 10666 10660 10653 10644 10639 10632 10625 10619 10612
10526 10516 10541 10556 10575 10589 10595 10602 10613 10623 10642 10668 10652 10673 10679 10670 10684 10684 10684 10682 10680 10678 10678 10679 10678 10678 10679 10679 10680 10680 10679 10678 10675 10671 10665 10658 10651 10645 10641 10633 10628 10623 10616 10609
10490 10501 10525 10551 10564 10574 10580 10589 10603 10619 10633 10646 10647 10663 10665 10668 10673 10675 10675 10674 10672 10671 10669 10670 10669 10670 10671 10672 10673 10674 10674 10672 10668 10662 10657 10650 10644 10639 10635 10630 10625 10620 10615 10609
10456 10482 10505 10517 10536 10542 10570 10561 10609 10604 10618 10628 10643 10651 10655 10659 10664 10666 10667 10668 10666 10663 10660 10661 10663 10663 10665 10667 10669 10670 10668 10665 10660 10655 10649 10643 10639 10635 10631 10628 10622 10619 10614 10610
10432 10464 10481 10498 10510 10532 10536 10574 10576 10596 10605 10623 10634 10642 10646 10654 10656 10660 10662 10662 10659 10658 10657 10657 10659 10660 10662 10664 10665 10665 10662 10658 10653 10648 10642 10638 10635 10632 10630 10625 10621 10617 10614 10612
10406 10439 10457 10472 10490 10512 10527 10548 10570 10584 10598 10614 10626 10631 10635 10644 10652 10652 10657 10656 10655 10655 10655 10656 10657 10658 10660 10661 10661 10659 10655 10651 10646 10642 10636 10633 10630 10630 10627 10625 10621 10616 10613 10611
10381 10412 10429 10455 10467 10490 10508 10534 10554 10567 10594 10605 10611 10622 10628 10638 10643 10649 10651 10651 10652 10651 10653 10654 10656 10657 10658 10657 10656 10653 10649 10645 10640 10636 10631 10630 10628 10629 10627 10625 10620 10616 10612 10610
10364 10392 10412 10435 10449 10477 10496 10518 10536 10558 10566 10590 10602 10614 10616 10628 10635 10640 10647 10646 10648 10649 10650 10652 10654 10653 10654 10652 10650 10648 10645 10639 10635 10631 10629 10627 10627 10628 10627 10624 10620 10616 10613 10610
10354 10372 10387 10411 10429 10441 10464 10496 10519 10542 10562 10585 10595 10598 10605 10619 10627 10631 10641 10642 10644 10645 10647 10649 10650 10650 10649 10647 10646 10644 10641 10635 10630 10628 10626 10624 10625 10625 10625 10624 10621 10616 10613 10611
10339 10353 10372 10384 10400 10429 10459 10478 10502 10531 10557 10570 10587 10587 10591 10611 10620 10630 10633 10638 10639 10642 10645 10647 10648 10647 10645 10644 10642 10641 10636 10631 10627 10625 10623 10622 10623 10623 10624 10623 10621 10617 10614 10612
10332 10349 10363 10380 10404 10427 10446 10471 10497 10521 10540 10556 10572 10579 10582 10602 10616 10622 10629 10633 10635 10639 10641 10643 10644 10643 10642 10640 10640 10637 10633 10628 10625 10623 10620 10618 10620 10622 10623 10623 10621 10618 10614 10613
10329 10342 10355 10371 10393 10418 10450 10477 10498 10522 10536 10552 10566 10569 10573 10592 10608 10617 10625 10629 10631 10635 10638 10639 10640 10640 10638 10637 10636 10634 10629 10626 10623 10621 10618 10616 10617 10620 10622 10622 10621 10618 10614 10615
10327 10337 10347 10364 10392 10423 10452 10471 10491 10510 10529 10545 10552 10557 10560 10579 10603 10614 10619 10621 10627 10631 10633 10634 10637 10636 10635 10635 10634 10631 10627 10624 10621 10619 10616 10615 10616 10619 10620 10621 10621 10619 10618 10618
10327 10337 10347 10367 10394 10413 10424 10439 10458 10490 10503 10513 10523 10530 10556 10577 10601 10606 10609 10615 10621 10625 10629 10631 10633 10633 10633 10632 10631 10629 10625 10623 10621 10619 10616 10615 10615 10618 10619 10622 10622 10621 10620 10620
10327 10337 10347 10365 10388 10408 10427 10445 10457 10462 10487 10509 10518 10544 10556 10579 10594 10600 10603 10610 10616 10621 10625 10628 10630 10630 10630 10631 10629 10627 10624 10622 10620 10619 10617 10614 10615 10616 10619 10622 10623 10624 10623 10624
10325 10337 10348 10365 10379 10390 10413 10432 10452 10476 10492 10502 10522 10542 10561 10580 10590 10589 10600 10605 10612 10616 10621 10625 10626 10627 10628 10629 10628 10625 10624 10622 10621 10619 10617 10615 10614 10616 10618 10621 10624 10623 10624 10623
10327 10335 10347 10361 10374 10391 10406 10424 10449 10473 10486 10504 10520 10540 10557 10567 10578 10584 10592 10598 10606 10612 10617 10620 10622 10624 10626 10627 10626 10625 10624 10623 10621 10620 10618 10617 10616 10616 10618 10620 10622 10623 10624 10623
10326 10334 10347 10362 10373 10390 10403 10422 10449 10467 10484 10503 10516 10534 10547 10559 10570 10578 10587 10593 10600 10607 10612 10616 10618 10621 10624 10625 10625 10625 10625 10624 10622 10621 10619 10618 10618 10618 10618 10620 10622 10624 10625 10626
10328 10337 10346 10355 10367 10380 10403 10430 10449 10463 10475 10495 10512 10527 10541 10553 10564 10572 10580 10588 10595 10602 10607 10612 10615 10618 10621 10623 10624 10625 10625 10625 10624 10622 10621 10620 10620 10620 10620 10620 10622 10624 10625 10627
10329 10337 10348 10361 10370 10384 10404 10422 10433 10447 10465 10481 10500 10518 10534 10546 10556 10565 10574 10583 10591 10597 10604 10608 10611 10614 10618 10621 10623 10624 10625 10626 10625 10625 10623 10622 10622 10621 10621 10622 10622 10624 10625 10627
10332 10340 10352 10362 10372 10388 10401 10414 10430 10445 10462 10476 10492 10509 10523 10536 10547 10558 10569 10578 10584 10591 10598 10603 10607 10611 10616 10619 10621 10623 10624 10626 10627 10627 10626 10625 10624 10623 10624 10624 10624 10625 10626 10627